Danbury, CT

12:10 PM EDT on September 30, 2016 (GMT -0400)
Danbury Municipal

Weather History for KDXR - January, 2015

Change the Weather History Date:

Saturday, January 17, 2015

  Actual Average Record
Temperature  
Mean Temperature 18 °F -  
Max Temperature 26 °F 31 °F 57 °F (1973)
Min Temperature 9 °F 12 °F -9 °F (2009)
Degree Days  
Heating Degree Days 48    
Moisture  
Dew Point 1 °F    
Average Humidity 49    
Maximum Humidity 71    
Minimum Humidity 28    
Precipitation  
Precipitation 0.00 in - - ()
Sea Level Pressure  
Sea Level Pressure 30.32 in    
Wind  
Wind Speed 4 mph (WNW)    
Max Wind Speed 12 mph    
Max Gust Speed -    
Visibility 10 miles    
Events      
Averages and records for this station are not official NWS values.
T = Trace of Precipitation, MM = Missing Value Source: NWS Daily Summary

Daily Weather History Graph

Daily Weather History Graph

Search for Another Location

Airport or City:

Trip Planner

Search our weather history database for the weather conditions in past years. The results will help you decide how hot, cold, wet, or windy it might be!

Date:

Astronomy

Jan. 17, 2015 Rise Set
Actual Time 7:16 AM EST 4:51 PM EST
Civil Twilight 6:46 AM EST 5:21 PM EST
Nautical Twilight 6:12 AM EST 5:55 PM EST
Astronomical Twilight 5:39 AM EST 6:28 PM EST
Moon 4:10 AM EST (1/17) 2:15 PM EST (1/17)
Length of Visible Light 10h 35m
Length of Day
9h 34m
Waning Crescent, 11% of the Moon is Illuminated
Jan 17
Waning Crescent
Jan 20
New
Jan 26
First Quarter
Feb 3
Full
Feb 11
Last Quarter

Hourly Weather History & Observations

Time (EST) Temp. Windchill Dew Point Humidity Pressure Visibility Wind Dir Wind Speed Gust Speed Precip Events Conditions
12:53 AM 14.0 °F 6.5 °F -0.9 °F 52% 30.21 in 10.0 mi NW 4.6 mph - N/A   Clear
1:53 AM 12.9 °F 6.9 °F -0.9 °F 54% 30.24 in 10.0 mi North 3.5 mph - N/A   Clear
2:53 AM 12.0 °F - -0.0 °F 59% 30.28 in 10.0 mi Calm Calm - N/A   Clear
3:53 AM 10.9 °F 1.4 °F -2.0 °F 56% 30.30 in 10.0 mi NNW 5.8 mph - N/A   Clear
4:53 AM 10.9 °F 4.7 °F -2.0 °F 56% 30.33 in 10.0 mi West 3.5 mph - N/A   Clear
5:53 AM 10.0 °F -0.9 °F -2.9 °F 56% 30.36 in 10.0 mi NW 6.9 mph - N/A   Clear
6:53 AM 9.0 °F - -4.0 °F 56% 30.38 in 10.0 mi Calm Calm - N/A   Clear
7:53 AM 9.0 °F - -4.0 °F 56% 30.38 in 10.0 mi Calm Calm - N/A   Clear
8:53 AM 12.9 °F - -2.9 °F 49% 30.41 in 10.0 mi Calm Calm - N/A   Clear
9:53 AM 15.1 °F 1.8 °F -2.0 °F 47% 30.40 in 10.0 mi North 11.5 mph - N/A   Clear
10:53 AM 18.0 °F 7.7 °F -2.9 °F 40% 30.38 in 10.0 mi NNW 8.1 mph - N/A   Clear
11:53 AM 21.0 °F 12.4 °F -2.9 °F 35% 30.36 in 10.0 mi West 6.9 mph - N/A   Clear
12:53 PM 24.1 °F 19.7 °F -2.9 °F 31% 30.35 in 10.0 mi NNW 3.5 mph - N/A   Clear
1:53 PM 24.1 °F - -4.0 °F 29% 30.34 in 10.0 mi Calm Calm - N/A   Clear
2:53 PM 26.1 °F 18.4 °F -2.0 °F 30% 30.34 in 10.0 mi West 6.9 mph - N/A   Clear
3:53 PM 26.1 °F 20.5 °F -2.9 °F 28% 30.33 in 10.0 mi WSW 4.6 mph - N/A   Clear
4:53 PM 25.0 °F 18.1 °F 1.0 °F 36% 30.32 in 10.0 mi SSE 5.8 mph - N/A   Clear
5:53 PM 23.0 °F 18.4 °F 1.0 °F 39% 30.32 in 10.0 mi SSE 3.5 mph - N/A   Clear
6:53 PM 21.9 °F 17.2 °F 1.9 °F 42% 30.31 in 10.0 mi SSE 3.5 mph - N/A   Clear
7:53 PM 21.9 °F - 7.0 °F 53% 30.31 in 10.0 mi Calm Calm - N/A   Clear
8:53 PM 21.0 °F 16.2 °F 9.0 °F 60% 30.30 in 10.0 mi ESE 3.5 mph - N/A   Clear
9:53 PM 19.0 °F - 10.0 °F 68% 30.29 in 10.0 mi Calm Calm - N/A   Clear
10:53 PM 19.0 °F - 10.9 °F 71% 30.28 in 10.0 mi Calm Calm - N/A   Clear
11:53 PM 23.0 °F 17.0 °F 14.0 °F 68% 30.25 in 10.0 mi South 4.6 mph - N/A   Clear